| time (UTC) | temp F | wind direction | speed MPH | gust MPH | rain 1hr in | rain 24hr in | rain mn in | humidity % | barometer mb |
| 20260509091533 | 49 | 217 | 4.0 | 7.0 | 0.00 | 0.02 | 0.00 | 94 | 1005.3 |
| 20260509090028 | 49 | 187 | 4.0 | 10.0 | 0.00 | 0.02 | 0.00 | 94 | 1005.2 |
| 20260509084526 | 49 | 186 | 2.0 | 6.0 | 0.00 | 0.02 | 0.00 | 93 | 1005.3 |
| 20260509083039 | 49 | 178 | 3.0 | 9.0 | 0.00 | 0.02 | 0.00 | 93 | 1005.4 |
| 20260509081532 | 49 | 181 | 4.0 | 7.0 | 0.00 | 0.02 | 0.00 | 93 | 1005.5 |
| 20260509080034 | 49 | 183 | 3.0 | 5.0 | 0.00 | 0.02 | 0.00 | 93 | 1005.5 |
| 20260509074526 | 47 | 155 | 1.0 | 5.0 | 0.00 | 0.02 | 0.00 | 93 | 1005.2 |
| 20260509073030 | 48 | 173 | 2.0 | 4.0 | 0.00 | 0.02 | 0.00 | 91 | 1005.4 |
| 20260509071530 | 50 | 196 | 2.0 | 6.0 | 0.00 | 0.02 | 0.00 | 92 | 1005.5 |
| 20260509070028 | 51 | 209 | 2.0 | 5.0 | 0.00 | 0.02 | 0.00 | 91 | 1005.8 |
| 20260509064532 | 51 | 213 | 1.0 | 5.0 | 0.00 | 0.02 | 0.00 | 91 | 1005.7 |
| 20260509063034 | 51 | 209 | 2.0 | 6.0 | 0.00 | 0.02 | 0.00 | 91 | 1005.9 |
| 20260509061540 | 52 | 221 | 2.0 | 6.0 | 0.00 | 0.02 | 0.00 | 90 | 1006.0 |
| 20260509060026 | 51 | 186 | 3.0 | 5.0 | 0.00 | 0.02 | 0.00 | 90 | 1006.1 |
| 20260509054530 | 52 | 189 | 3.0 | 7.0 | 0.00 | 0.02 | 0.00 | 89 | 1006.0 |
| 20260509053049 | 53 | 194 | 4.0 | 8.0 | 0.00 | 0.02 | 0.00 | 89 | 1006.1 |
| 20260509051527 | 53 | 215 | 4.0 | 10.0 | 0.00 | 0.02 | 0.00 | 88 | 1006.2 |
| 20260509050032 | 53 | 232 | 4.0 | 9.0 | 0.00 | 0.02 | 0.00 | 88 | 1006.5 |
| 20260509044527 | 53 | 218 | 4.0 | 9.0 | 0.00 | 0.02 | 0.02 | 87 | 1006.5 |
| 20260509043033 | 53 | 212 | 3.0 | 5.0 | 0.00 | 0.02 | 0.02 | 87 | 1006.7 |
| 20260509041528 | 54 | 185 | 3.0 | 7.0 | 0.00 | 0.02 | 0.02 | 86 | 1006.7 |
| 20260509040030 | 54 | 219 | 3.0 | 6.0 | 0.00 | 0.02 | 0.02 | 85 | 1006.7 |
| 20260509034534 | 54 | 197 | 3.0 | 8.0 | 0.00 | 0.02 | 0.02 | 84 | 1006.8 |
| 20260509033026 | 55 | 227 | 5.0 | 7.0 | 0.00 | 0.02 | 0.02 | 83 | 1007.0 |
| 20260509031528 | 55 | 198 | 3.0 | 8.0 | 0.00 | 0.02 | 0.02 | 82 | 1007.0 |
| 20260509030030 | 55 | 207 | 3.0 | 7.0 | 0.00 | 0.02 | 0.02 | 82 | 1007.1 |
| 20260509024530 | 55 | 196 | 2.0 | 5.0 | 0.00 | 0.02 | 0.02 | 82 | 1007.0 |
| 20260509023032 | 55 | 190 | 1.0 | 5.0 | 0.00 | 0.02 | 0.02 | 81 | 1007.1 |
| 20260509021528 | 56 | 200 | 2.0 | 5.0 | 0.00 | 0.02 | 0.02 | 80 | 1007.0 |
| 20260509020034 | 56 | 196 | 2.0 | 5.0 | 0.00 | 0.02 | 0.02 | 80 | 1007.0 |
| 20260509014532 | 57 | 190 | 2.0 | 5.0 | 0.00 | 0.02 | 0.02 | 79 | 1006.9 |
| 20260509013028 | 57 | 171 | 2.0 | 9.0 | 0.00 | 0.02 | 0.02 | 77 | 1006.9 |
| 20260509011528 | 58 | 204 | 5.0 | 10.0 | 0.00 | 0.02 | 0.02 | 76 | 1006.9 |
| 20260509010028 | 58 | 195 | 5.0 | 12.0 | 0.00 | 0.02 | 0.02 | 75 | 1006.8 |
| 20260509004536 | 59 | 196 | 7.0 | 14.0 | 0.00 | 0.02 | 0.02 | 74 | 1006.7 |
| 20260509003027 | 60 | 207 | 10.0 | 18.0 | 0.00 | 0.02 | 0.02 | 72 | 1006.6 |
| 20260509001528 | 62 | 215 | 10.0 | 15.0 | 0.00 | 0.02 | 0.02 | 68 | 1006.3 |
| 20260509000028 | 62 | 211 | 6.0 | 11.0 | 0.00 | 0.02 | 0.02 | 67 | 1006.4 |
| 20260508234528 | 62 | 202 | 4.0 | 10.0 | 0.00 | 0.02 | 0.02 | 67 | 1006.4 |
| 20260508233030 | 62 | 197 | 6.0 | 14.0 | 0.00 | 0.02 | 0.02 | 66 | 1006.6 |
| 20260508231529 | 63 | 241 | 7.0 | 13.0 | 0.00 | 0.02 | 0.02 | 65 | 1006.6 |
| 20260508230026 | 63 | 247 | 5.0 | 10.0 | 0.00 | 0.02 | 0.02 | 67 | 1006.6 |
| 20260508224530 | 63 | 200 | 6.0 | 14.0 | 0.00 | 0.02 | 0.02 | 67 | 1006.7 |
| 20260508223039 | 63 | 223 | 8.0 | 17.0 | 0.00 | 0.02 | 0.02 | 67 | 1006.7 |
| 20260508221532 | 62 | 253 | 8.0 | 13.0 | 0.00 | 0.02 | 0.02 | 67 | 1006.8 |
| 20260508220032 | 63 | 236 | 7.0 | 16.0 | 0.00 | 0.02 | 0.02 | 68 | 1006.7 |
| 20260508214528 | 63 | 243 | 9.0 | 16.0 | 0.00 | 0.02 | 0.02 | 67 | 1006.8 |
| 20260508213026 | 63 | 228 | 9.0 | 16.0 | 0.00 | 0.02 | 0.02 | 67 | 1006.8 |
| 20260508211538 | 63 | 276 | 9.0 | 15.0 | 0.00 | 0.02 | 0.02 | 68 | 1006.8 |
| 20260508210030 | 62 | 271 | 8.0 | 15.0 | 0.00 | 0.02 | 0.02 | 68 | 1007.0 |
| 20260508204528 | 62 | 207 | 4.0 | 13.0 | 0.00 | 0.02 | 0.02 | 70 | 1007.0 |
| 20260508203028 | 62 | 263 | 4.0 | 9.0 | 0.00 | 0.02 | 0.02 | 67 | 1007.2 |
| 20260508201526 | 62 | 259 | 3.0 | 9.0 | 0.00 | 0.02 | 0.02 | 67 | 1007.5 |
| 20260508200028 | 62 | 255 | 3.0 | 7.0 | 0.00 | 0.02 | 0.02 | 65 | 1007.7 |
| 20260508194531 | 62 | 0 | 0.0 | 6.0 | 0.00 | 0.02 | 0.02 | 67 | 1007.8 |
| 20260508193034 | 62 | 113 | 0.0 | 5.0 | 0.00 | 0.02 | 0.02 | 66 | 1007.9 |
| 20260508191537 | 61 | 0 | 2.0 | 6.0 | 0.00 | 0.02 | 0.02 | 66 | 1008.1 |
| 20260508190032 | 61 | 0 | 1.0 | 7.0 | 0.00 | 0.02 | 0.02 | 67 | 1008.2 |
| 20260508184526 | 61 | 129 | 3.0 | 6.0 | 0.00 | 0.02 | 0.02 | 70 | 1008.6 |
| 20260508183033 | 60 | 112 | 3.0 | 8.0 | 0.00 | 0.02 | 0.02 | 71 | 1008.7 |
| 20260508181528 | 60 | 82 | 3.0 | 6.0 | 0.00 | 0.02 | 0.02 | 70 | 1008.8 |
| 20260508180028 | 60 | 102 | 0.0 | 4.0 | 0.00 | 0.02 | 0.02 | 69 | 1008.9 |
| 20260508174529 | 59 | 0 | 1.0 | 6.0 | 0.00 | 0.02 | 0.02 | 70 | 1009.3 |
| 20260508173027 | 60 | 169 | 2.0 | 8.0 | 0.00 | 0.02 | 0.02 | 70 | 1009.7 |
| 20260508171525 | 59 | 215 | 1.0 | 5.0 | 0.00 | 0.02 | 0.02 | 70 | 1009.9 |
| 20260508170026 | 59 | 0 | 1.0 | 8.0 | 0.00 | 0.02 | 0.02 | 71 | 1010.2 |
| 20260508164528 | 59 | 0 | 2.0 | 8.0 | 0.00 | 0.02 | 0.02 | 73 | 1010.3 |
| 20260508163035 | 59 | 240 | 3.0 | 10.0 | 0.00 | 0.02 | 0.02 | 74 | 1010.6 |
| 20260508161532 | 58 | 194 | 6.0 | 11.0 | 0.00 | 0.02 | 0.02 | 74 | 1010.6 |
| 20260508160028 | 58 | 193 | 5.0 | 12.0 | 0.00 | 0.02 | 0.02 | 77 | 1010.8 |
| 20260508154526 | 57 | 209 | 4.0 | 10.0 | 0.00 | 0.02 | 0.02 | 79 | 1010.8 |
| 20260508153034 | 56 | 163 | 4.0 | 9.0 | 0.00 | 0.02 | 0.02 | 83 | 1011.1 |
| 20260508151530 | 55 | 184 | 4.0 | 7.0 | 0.00 | 0.02 | 0.02 | 83 | 1011.0 |
| 20260508150030 | 55 | 173 | 5.0 | 9.0 | 0.00 | 0.02 | 0.02 | 83 | 1011.1 |
| 20260508144529 | 55 | 212 | 4.0 | 10.0 | 0.00 | 0.02 | 0.02 | 84 | 1011.2 |
| 20260508143027 | 55 | 156 | 3.0 | 8.0 | 0.00 | 0.02 | 0.02 | 85 | 1011.0 |
| 20260508141526 | 54 | 158 | 6.0 | 8.0 | 0.00 | 0.02 | 0.02 | 86 | 1011.1 |
| 20260508140029 | 53 | 181 | 5.0 | 8.0 | 0.00 | 0.02 | 0.02 | 90 | 1011.2 |
| 20260508134531 | 52 | 202 | 3.0 | 6.0 | 0.01 | 0.02 | 0.02 | 92 | 1011.3 |
| 20260508133028 | 51 | 194 | 3.0 | 5.0 | 0.01 | 0.02 | 0.02 | 93 | 1011.5 |
| 20260508131531 | 50 | 213 | 2.0 | 7.0 | 0.02 | 0.02 | 0.02 | 93 | 1011.4 |
| 20260508130026 | 49 | 192 | 2.0 | 9.0 | 0.02 | 0.02 | 0.02 | 92 | 1011.3 |
| 20260508124530 | 49 | 191 | 3.0 | 7.0 | 0.01 | 0.01 | 0.01 | 91 | 1011.5 |
| 20260508123028 | 49 | 200 | 3.0 | 7.0 | 0.01 | 0.01 | 0.01 | 91 | 1011.5 |
| 20260508121527 | 48 | 215 | 3.0 | 5.0 | 0.00 | 0.00 | 0.00 | 90 | 1011.7 |
| 20260508120036 | 48 | 196 | 1.0 | 5.0 | 0.00 | 0.00 | 0.00 | 90 | 1011.2 |
| 20260508114527 | 47 | 208 | 0.0 | 2.0 | 0.00 | 0.00 | 0.00 | 90 | 1011.3 |
| 20260508113030 | 47 | 0 | 0.0 | 3.0 | 0.00 | 0.00 | 0.00 | 89 | 1010.9 |
| 20260508111531 | 46 | 208 | 2.0 | 3.0 | 0.00 | 0.00 | 0.00 | 89 | 1010.8 |
| 20260508110029 | 46 | 208 | 2.0 | 3.0 | 0.00 | 0.00 | 0.00 | 88 | 1010.9 |
| 20260508104528 | 47 | 0 | 0.0 | 4.0 | 0.00 | 0.00 | 0.00 | 87 | 1010.9 |
| 20260508103026 | 46 | 0 | 1.0 | 3.0 | 0.00 | 0.00 | 0.00 | 87 | 1010.8 |
| 20260508101526 | 46 | 210 | 2.0 | 4.0 | 0.00 | 0.00 | 0.00 | 88 | 1010.9 |
| 20260508100027 | 45 | 210 | 2.0 | 3.0 | 0.00 | 0.00 | 0.00 | 87 | 1010.9 |
| 20260508094526 | 45 | 0 | 1.0 | 3.0 | 0.00 | 0.00 | 0.00 | 86 | 1011.1 |
| 20260508093031 | 47 | 210 | 3.0 | 4.0 | 0.00 | 0.00 | 0.00 | 83 | 1011.1 |